[Iaude] MPEC A24: 2024 AK [a=1.88,e=0.45,i=35.6,H=23.5]

mpec at marsden.cfa.harvard.edu mpec at marsden.cfa.harvard.edu
Wed Jan 3 01:58:01 EST 2024


M.P.E.C. 2024-A24                               Issued 2024 January 3, 06:56 UT

     The Minor Planet Electronic Circulars contain information on unusual
         minor planets, routine data on comets and natural satellites,
         and occasional editorial announcements.  They are published
    on behalf of Division F of the International Astronomical Union by the
          Minor Planet Center, Smithsonian Astrophysical Observatory,
                          Cambridge, MA 02138, U.S.A.
			  
             Prepared using the Tamkin Foundation Computer Network

                              MPC at CFA.HARVARD.EDU
            URL https://www.minorplanetcenter.net/    ISSN 1523-6714

                                    2024 AK                                     


Observations:
     K24A00K*1C2024 01 01.45740509 14 13.009+46 35 55.90         19.73GVEA024G96
     K24A00K 1C2024 01 01.46269709 14 17.750+46 38 04.20         20.19GVEA024G96
     K24A00K 1C2024 01 01.46801109 14 22.607+46 40 17.18         19.42GVEA024G96
     K24A00K 1C2024 01 01.47331809 14 27.442+46 42 28.84         19.42GVEA024G96
     K24A00K 1C2024 01 01.51990409 15 10.033+47 01 36.08         19.71GVEA024G96
     K24A00K 1C2024 01 01.52006409 15 10.156+47 01 40.01         19.10GVEA024G96
     K24A00K 1C2024 01 01.52022509 15 10.303+47 01 43.50         19.50GVEA024G96
     K24A00K 1C2024 01 01.52038609 15 10.469+47 01 47.68         19.97GVEA024G96
     K24A00K KC2024 01 01.87030209 21 10.97 +49 23 34.9          19.7 GVEA024204
     K24A00K KC2024 01 01.87735109 21 18.17 +49 26 27.1                VEA024204
     K24A00K  C2024 01 03.25111309 48 47.420+58 00 40.06         20.3 GVEA024H01
     K24A00K  C2024 01 03.25596509 48 53.992+58 02 21.58         19.5 GVEA024H01
     K24A00K  C2024 01 03.27162209 49 15.251+58 07 48.40         19.7 GVEA024H01
     K24A00K  C2024 01 03.27653209 49 21.922+58 09 30.75         20.3 GVEA024H01

Observer details:
204 Schiaparelli Observatory.  Observers L. Buzzi, G. Galli.  0.84-m f/3.5
    reflector + CCD.
G96 Mt. Lemmon Survey.  Observer K. W. Wierzchos.  Measurers E. C. Beshore, D.
    Fay, J. B. Fazekas, D. C. Fuls, A. R. Gibbs, A. D. Grauer, H. Groeller, J.
    K. Hogan, R. A. Kowalski, S. M. Larson, G. J. Leonard, D. Rankin, R. L.
    Seaman, F. C. Shelly, K. W. Wierzchos.  1.5-m reflector + 10K CCD.
H01 Magdalena Ridge Observatory, Socorro.  Observers W. H. Ryan, E. V. Ryan.
    Measurer W. H. Ryan.  2.4-m f/8.9 Ritchey-Chretien + CCD.

Orbital elements:
2024 AK                                                  Earth MOID = 0.0807 AU
Epoch 2023 Sept. 13.0 TT = JDT 2460200.5                MPC                     
M 309.29827              (2000.0)            P               Q                  
n   0.38333685     Peri.   28.54837     -0.51721269     -0.63389967             
a   1.8767900      Node    98.70725     +0.63206369     -0.73591529             
e   0.4525204      Incl.   35.57281     +0.57704985     +0.23790731             
P   2.57           H   23.52          G   0.15           U   9                  
Residuals in seconds of arc
240101 G96  0.1+  1.4+    240101 G96  0.2-  0.1+    240103 H01  0.0   0.0
240101 G96  0.4-  1.4-    240101 G96  0.2-  0.3-    240103 H01  0.1-  0.0
240101 G96  0.1+  0.1+    240101 G96  0.0   0.1-    240103 H01  0.0   0.1-
240101 G96  0.4+  0.5+    240101 204  0.1+  0.0     240103 H01  0.1+  0.0
240101 G96  0.1+  0.1+    240101 204  0.1-  0.2+

Ephemeris:
2024 AK                  a,e,i = 1.88, 0.45, 36                  q = 1.0275
Date    TT    R. A. (2000) Decl.     Delta      r    Elong.  Phase     V
2023 12 04    07 18 32.3 -31 29 23   0.3446  1.1696   114.1    50.3    23.4
...
2023 12 19    07 46 12.2 -18 19 27   0.1743  1.1016   128.8    44.1    21.6
...
2023 12 27    08 19 12.1 +09 21 14   0.1035  1.0729   148.3    28.8    20.0
...
2024 01 02    09 23 19.3 +50 15 37   0.09309 1.0555   139.2    37.5    20.0
2024 01 03    09 42 59.9 +56 32 40   0.09677 1.0530   134.1    42.1    20.2
2024 01 04    10 07 23.0 +62 02 56   0.1018  1.0506   129.2    46.5    20.4
...
2024 01 10    14 23 49.9 +75 42 09   0.1494  1.0385   107.7    64.5    21.8
...
2024 01 18    17 19 10.0 +69 55 53   0.2306  1.0292    94.8    72.3    22.9
...
2024 02 02    18 16 48.6 +63 02 55   0.3842  1.0334    86.2    72.1    24.0

A. U. Tomatic                (C) Copyright 2024 MPC           M.P.E.C. 2024-A24





More information about the Iaude mailing list